Location: Acequia del Cap
(41.7000°N, 0.6167°E)
Time: 23:27:43
(UTC+00:00)

Okean 1-7 Rocket - Pass Details

Date: 07 August 2020
Orbit: 617 x 648 km, 82.5° (Epoch: 22 September)

Event Time Altitude Azimuth Distance (km) Brightness Sun altitude
Rises 02:26:51 0° 355° (N) 2,904 7.7 -23.2°
Reaches altitude 10° 02:29:06 10° 358° (N) 1,996 6.8 -22.9°
Maximum altitude 02:33:30 65° 81° (E) 686 3.8 -22.4°
Enters shadow 02:35:05 38° 149° (SSE) 965 4.3 -22.2°
